Location: *
(35.1500°N, 76.6700°W)
Time: 17:23:15
(UTC+00:00)

Cosmos 1356 - Pass Details

Date: 13 October 2019
Orbit: 447 x 448 km, 81.1° (Epoch: 16 November)

Event Time Altitude Azimuth Distance (km) Brightness Sun altitude
Rises 23:21:43 0° 166° (SSE) 2,432 7.0 -10.4°
Reaches altitude 10° 23:23:56 10° 155° (SSE) 1,566 5.9 -10.9°
Maximum altitude 23:26:56 29° 93° (E) 852 4.2 -11.5°
Drops below altitude 10° 23:29:57 10° 32° (NNE) 1,577 5.8 -12.1°
Sets 23:32:11 0° 21° (NNE) 2,452 6.9 -12.6°
